Location: Kershaw
(34.5481°N, 80.5823°W)
Time: 00:32:19
(UTC+00:00)

Altair - Pass Details

Date: 04 October 2022
Orbit: 1501 x 1682 km, 47.2° (Epoch: 05 December)

Event Time Altitude Azimuth Distance (km) Brightness Sun altitude
Exits shadow 08:04:39 38° 144° (SE) 2,245 8.3 -39.8°
Maximum altitude 08:05:43 39° 130° (SE) 2,219 8.3 -39.6°
Drops below altitude 10° 08:14:33 10° 66° (ENE) 3,868 10.3 -38.0°
Sets 08:17:59 0° 59° (ENE) 4,880 11.1 -37.3°
